Flag for Argentina Weather past 2 weeks in Comodoro Rivadavia, Chubut, Argentina

Now
52 °F

Passing clouds.


Feels Like: 52 °F
Forecast: N/A
Wind: 2 mph from West

Location: Comodoro Rivadavia Aerodrome

Current Time: Jul 30, 2015 at 6:09:08 PM

Latest Report: Jul 30, 2015 at 5:00 PM


Visibility: N/A

Pressure: 29.71 "Hg

Humidity: 88%

Dew point: 48 °F

Location of Comodoro RivadaviaLocation

Historic Weather in Comodoro Rivadavia — Graph

°F

Comodoro Rivadavia temperature yesterday

Maximum temperature yesterday: 61 °F (at 3:00 PM)
Minimum temperature yesterday: 36 °F (at 1:00 AM)
Average temperature yesterday: 49 °F

Past Weeks' High & Low Weather Summary

 TemperatureHumidityPressure
High68 °F (Jul 25, 2:00 PM)100% (Jul 24, 5:00 AM)30.18 "Hg (Jul 24, 5:00 AM)
Low28 °F (Jul 16, 9:00 AM)27% (Jul 22, 5:00 PM)29.36 "Hg (Jul 26, 11:00 AM)
Average51 °F53%29.71 "Hg
* Reported Jul 15 5:00 PM — Jul 30 5:00 PM, Comodoro Rivadavia, Weather by CustomWeather, © 2015

Note: Actual official high and low records may vary slightly from our data, if they occured in-between our weather recording intervals... More about our weather records

Advertising

Comodoro Rivadavia weather history for previous 24 hours

 ConditionsComfort  
Time TempWeatherWind HumidityBarometerVisibility
5:00 PM
Thu, Jul 30
52 °FPassing clouds.2 mph88%29.71 "HgN/A
4:00 PM54 °FLight rain. Broken clouds.9 mph72%29.68 "HgN/A
3:00 PM55 °FLight rain. Partly sunny.10 mph63%29.68 "HgN/A
2:00 PM55 °FScattered clouds.10 mph59%29.65 "HgN/A
1:00 PM55 °FScattered clouds.10 mph59%29.71 "HgN/A
12:00 PM55 °FBroken clouds.13 mph55%29.68 "HgN/A
11:00 AM54 °FPartly sunny.9 mph58%29.68 "HgN/A
10:00 AM52 °FBroken clouds.No wind77%29.71 "HgN/A
9:00 AM50 °FBroken clouds.3 mph76%29.74 "HgN/A
8:00 AM50 °FSunny.2 mph71%29.74 "Hg10 mi
7:00 AM50 °FPassing clouds.10 mph58%29.74 "HgN/A
6:00 AM50 °FClear.12 mph47%29.77 "Hg10 mi
5:00 AM52 °FClear.12 mph47%29.77 "Hg10 mi
4:00 AM52 °FClear.5 mph50%29.80 "Hg10 mi
3:00 AM52 °FClear.5 mph41%29.83 "Hg10 mi
2:00 AM52 °FClear.5 mph41%29.83 "Hg10 mi
1:00 AM52 °FClear.12 mph54%29.86 "Hg10 mi
12:00 AM52 °FClear.7 mph44%29.86 "Hg10 mi
11:00 PM
Wed, Jul 29
52 °FClear.9 mph44%29.89 "Hg10 mi
10:00 PM52 °FClear.12 mph47%29.89 "Hg10 mi
9:00 PM54 °FClear.10 mph41%29.89 "Hg10 mi
8:00 PM54 °FClear.10 mph41%29.89 "Hg10 mi
7:00 PM57 °FClear.13 mph33%29.89 "Hg10 mi
6:00 PM59 °FClear.7 mph39%29.92 "Hg10 mi
Weather by CustomWeather, © 2015

See weather overviewHow to use our weather pages